Estación de Odessa

Ultimos registro cada 15 minutos 37
Estación Fecha / Hora Temperatura Humedad Lluvia Velocidad Dirección Radiación Presion
37 Odessa 09-05-2026 09:00 5,1 95 0 0 173 58 1020,5
36 Odessa 09-05-2026 08:45 5,1 95 0 0 209 49 1020,6
35 Odessa 09-05-2026 08:30 4,9 95 0 1,8 251 76 1020,6
34 Odessa 09-05-2026 08:15 5,1 94 0 0,9 187 26 1020,6
33 Odessa 09-05-2026 08:00 5,1 94 0 0,4 157 16 1020,4
32 Odessa 09-05-2026 07:45 4,9 94 0 0 216 7 1020,6
31 Odessa 09-05-2026 07:30 5,2 94 0 0,9 147 0 1020,6
30 Odessa 09-05-2026 07:15 5,6 94 0 2,2 262 0 1020,6
29 Odessa 09-05-2026 07:00 5,6 94 0 1,8 213 0 1020,6
28 Odessa 09-05-2026 06:45 5,8 94 0 1,3 226 0 1020,8
27 Odessa 09-05-2026 06:30 6 94 0 0,4 230 0 1020,7
26 Odessa 09-05-2026 06:15 6,2 93 0 0,9 221 0 1020,8
25 Odessa 09-05-2026 06:00 6,6 94 0 1,3 255 0 1020,9
24 Odessa 09-05-2026 05:45 6,7 93 0 3,1 199 0 1020,9
23 Odessa 09-05-2026 05:30 7 93 0 1,3 212 0 1020,9
22 Odessa 09-05-2026 05:15 7,1 93 0 0,9 216 0 1020,8
21 Odessa 09-05-2026 05:00 7,2 93 0 2,7 228 0 1021
20 Odessa 09-05-2026 04:45 7,4 94 0 2,2 210 0 1020,9
19 Odessa 09-05-2026 04:30 7,7 94 0 1,3 223 0 1020,7
18 Odessa 09-05-2026 04:15 7,8 94 0 0,9 236 0 1020,7
17 Odessa 09-05-2026 04:00 7,9 94 0 1,8 193 0 1020,9
16 Odessa 09-05-2026 03:45 8 94 0 1,8 195 0 1020,9
15 Odessa 09-05-2026 03:30 8 94 0 4 229 0 1021
14 Odessa 09-05-2026 03:15 8,2 95 0 0,9 193 0 1021,2
13 Odessa 09-05-2026 03:00 8,2 95 0 1,8 256 0 1021,4
12 Odessa 09-05-2026 02:45 8,3 95 0 0,9 192 0 1021,3
11 Odessa 09-05-2026 02:30 8,3 95 0 0,9 233 0 1021,3
10 Odessa 09-05-2026 02:15 8,4 95 0 1,8 206 0 1021,3
9 Odessa 09-05-2026 02:00 8,6 95 0 1,3 224 0 1021,7
8 Odessa 09-05-2026 01:45 8,7 95 0 1,3 209 0 1021,8
7 Odessa 09-05-2026 01:30 8,8 94 0 2,7 208 0 1021,5
6 Odessa 09-05-2026 01:15 8,9 94 0 1,8 241 0 1021,8
5 Odessa 09-05-2026 01:00 9,2 94 0 1,8 209 0 1021,8
4 Odessa 09-05-2026 00:45 9,3 95 0 0,9 226 0 1021,7
3 Odessa 09-05-2026 00:30 9,4 94 0 0,9 258 0 1021,7
2 Odessa 09-05-2026 00:15 9,5 94 0 1,3 251 0 1021,6
1 Odessa 09-05-2026 00:00 9,6 94 0 0,9 231 0 1021,6